Location: Feydey
(46.3431°N, 7.0106°E)
Time: 09:30:45
(UTC+00:00)

SJ 16-02 - Pass Details

Date: 20 June 2021
Orbit: 606 x 616 km, 75.0° (Epoch: 04 August)

Event Time Altitude Azimuth Distance (km) Brightness Sun altitude
Rises 23:09:42 0° 340° (NNW) 2,875 6.2 -20.0°
Reaches altitude 10° 23:11:57 10° 343° (NNW) 1,966 5.1 -20.0°
Maximum altitude 23:16:20 76° 68° (ENE) 629 1.3 -20.1°
Enters shadow 23:17:29 48° 143° (SE) 797 1.5 -20.1°
